When you browse on this site, cookies collect data to enhance your experience and personalize the content and advertising you see.
Visit our Privacy Policy to learn more. By continuing to use the site, you agree to this use of cookies and data.
  • In Switzerland
  • List of Countries
  • For 7 days
  • Water Temperature
  • Satellite Maps
  • Weather Map
  • Weather Widgets
  • user-avatar
    Login

    Hourly Weather Tolukovychi

    Today, 19 April, Friday

    Time Temperature Precipitation Wind Pressure Humidity
    00:00 +8°C° 0 mm 2 mps 749 mmHg 71%
    01:00 +8°C° 0 mm 2 mps 749 mmHg 73%
    02:00 +7°C° 0 mm 2 mps 748 mmHg 74%
    03:00 +7°C° 0 mm 2 mps 748 mmHg 76%
    04:00 +6°C° 0 mm 2 mps 748 mmHg 78%
    05:00 +6°C° 0 mm 2 mps 748 mmHg 80%
    06:00 +7°C° 0 mm 2 mps 748 mmHg 76%
    07:00 +8°C° 0 mm 3 mps 749 mmHg 73%
    08:00 +10°C° 0 mm 3 mps 749 mmHg 70%
    09:00 +11°C° 0 mm 4 mps 749 mmHg 62%
    10:00 +13°C° 0 mm 4 mps 749 mmHg 54%
    11:00 +14°C° 0 mm 5 mps 749 mmHg 47%
    12:00 +14°C° 0 mm 5 mps 749 mmHg 45%
    13:00 +15°C° 0 mm 5 mps 749 mmHg 43%
    14:00 +15°C° 0 mm 5 mps 749 mmHg 42%
    15:00 +15°C° 0 mm 5 mps 749 mmHg 43%
    16:00 +15°C° 0 mm 5 mps 749 mmHg 44%
    17:00 +14°C° 0 mm 5 mps 749 mmHg 45%
    18:00 +13°C° 0 mm 4 mps 749 mmHg 50%
    19:00 +11°C° 0 mm 3 mps 749 mmHg 55%
    20:00 +9°C° 0 mm 2 mps 749 mmHg 60%
    21:00 +8°C° 0 mm 2 mps 749 mmHg 61%
    22:00 +8°C° 0 mm 2 mps 749 mmHg 62%
    23:00 +7°C° 0 mm 2 mps 750 mmHg 63%

    Tomorrow, 20 April, Saturday

    Time Temperature Precipitation Wind Pressure Humidity
    00:00 +7°C° 0 mm 1 mps 750 mmHg 64%
    01:00 +7°C° 0 mm 1 mps 750 mmHg 65%
    02:00 +6°C° 0 mm 1 mps 750 mmHg 66%
    03:00 +6°C° 0 mm 1 mps 750 mmHg 66%
    04:00 +6°C° 0 mm 1 mps 750 mmHg 67%
    05:00 +5°C° 0 mm 1 mps 749 mmHg 68%
    06:00 +7°C° 0 mm 1 mps 750 mmHg 65%
    07:00 +8°C° 0 mm 1 mps 750 mmHg 61%
    08:00 +10°C° 0 mm 1 mps 750 mmHg 58%
    09:00 +11°C° 0 mm 1 mps 749 mmHg 53%
    10:00 +13°C° 0 mm 1 mps 749 mmHg 48%
    11:00 +15°C° 0 mm 1 mps 749 mmHg 44%
    12:00 +15°C° 0 mm 1 mps 749 mmHg 42%
    13:00 +16°C° 0 mm 1 mps 748 mmHg 41%
    14:00 +16°C° 0 mm 1 mps 748 mmHg 40%
    15:00 +16°C° 0 mm 1 mps 747 mmHg 43%
    16:00 +16°C° 0 mm 1 mps 747 mmHg 46%
    17:00 +15°C° 0 mm 1 mps 747 mmHg 49%
    18:00 +14°C° 0 mm 1 mps 746 mmHg 51%
    19:00 +13°C° 0 mm 1 mps 746 mmHg 53%
    20:00 +12°C° 0 mm 1 mps 746 mmHg 55%
    21:00 +11°C° 0 mm 1 mps 746 mmHg 57%
    22:00 +11°C° 0 mm 1 mps 746 mmHg 59%
    23:00 +9°C° 0 mm 2 mps 746 mmHg 60%

    Day after tomorrow, 21 April, Sunday

    Time Temperature Precipitation Wind Pressure Humidity
    00:00 +9°C° 0 mm 2 mps 746 mmHg 62%
    01:00 +8°C° 0 mm 2 mps 745 mmHg 63%
    02:00 +8°C° 0 mm 2 mps 745 mmHg 65%
    03:00 +8°C° 0 mm 2 mps 745 mmHg 67%
    04:00 +8°C° 0 mm 2 mps 745 mmHg 69%
    05:00 +7°C° 0 mm 2 mps 744 mmHg 71%
    06:00 +9°C° 0.1 mm 1 mps 744 mmHg 72%
    07:00 +10°C° 0.1 mm 1 mps 744 mmHg 72%
    08:00 +10°C° 0.1 mm 1 mps 744 mmHg 73%
    09:00 +11°C° 0.1 mm 1 mps 744 mmHg 68%
    10:00 +12°C° 0.1 mm 2 mps 744 mmHg 63%
    11:00 +14°C° 0.1 mm 2 mps 744 mmHg 59%
    12:00 +14°C° 0.6 mm 2 mps 743 mmHg 58%
    13:00 +15°C° 0.6 mm 2 mps 743 mmHg 57%
    14:00 +14°C° 0.6 mm 3 mps 743 mmHg 56%
    15:00 +14°C° 0.9 mm 3 mps 742 mmHg 59%
    16:00 +14°C° 0.9 mm 2 mps 742 mmHg 62%
    17:00 +14°C° 0.9 mm 2 mps 742 mmHg 65%
    18:00 +12°C° 0.2 mm 2 mps 742 mmHg 69%
    19:00 +11°C° 0.2 mm 1 mps 742 mmHg 73%
    20:00 +10°C° 0.2 mm 1 mps 742 mmHg 77%
    21:00 +9°C° 0 mm 1 mps 742 mmHg 79%
    22:00 +9°C° 0 mm 1 mps 742 mmHg 81%
    23:00 +8°C° 0 mm 1 mps 742 mmHg 83%

    22 April, Monday

    Time Temperature Precipitation Wind Pressure Humidity
    00:00 +8°C° 0 mm 1 mps 742 mmHg 83%
    01:00 +8°C° 0 mm 1 mps 742 mmHg 84%
    02:00 +8°C° 0 mm 1 mps 742 mmHg 85%
    03:00 +7°C° 0 mm 1 mps 742 mmHg 87%
    04:00 +6°C° 0 mm 2 mps 742 mmHg 90%
    05:00 +6°C° 0 mm 2 mps 742 mmHg 92%
    06:00 +5°C° 0.1 mm 3 mps 742 mmHg 91%
    07:00 +7°C° 0.1 mm 3 mps 742 mmHg 90%
    08:00 +7°C° 0.1 mm 4 mps 742 mmHg 89%
    09:00 +8°C° 0 mm 5 mps 743 mmHg 83%
    10:00 +9°C° 0 mm 6 mps 743 mmHg 78%
    11:00 +11°C° 0 mm 6 mps 743 mmHg 72%
    12:00 +11°C° 0.1 mm 7 mps 743 mmHg 68%
    13:00 +12°C° 0.1 mm 7 mps 743 mmHg 65%
    14:00 +13°C° 0.1 mm 8 mps 743 mmHg 61%
    15:00 +13°C° 0.2 mm 8 mps 742 mmHg 61%
    16:00 +13°C° 0.2 mm 8 mps 742 mmHg 62%
    17:00 +12°C° 0.2 mm 8 mps 742 mmHg 62%
    18:00 +11°C° 0 mm 7 mps 742 mmHg 64%
    19:00 +10°C° 0 mm 7 mps 743 mmHg 65%
    20:00 +8°C° 0 mm 6 mps 743 mmHg 66%
    21:00 +8°C° 0 mm 6 mps 743 mmHg 66%
    22:00 +8°C° 0 mm 6 mps 743 mmHg 65%
    23:00 +7°C° 0 mm 6 mps 743 mmHg 65%

    23 April, Tuesday

    Time Temperature Precipitation Wind Pressure Humidity
    00:00 +7°C° 0 mm 6 mps 743 mmHg 66%
    01:00 +7°C° 0 mm 6 mps 743 mmHg 67%
    02:00 +7°C° 0 mm 5 mps 744 mmHg 69%
    03:00 +6°C° 0 mm 5 mps 744 mmHg 69%
    04:00 +6°C° 0 mm 5 mps 744 mmHg 69%
    05:00 +5°C° 0 mm 5 mps 744 mmHg 69%
    06:00 +5°C° 0 mm 6 mps 743 mmHg 66%
    07:00 +6°C° 0 mm 7 mps 743 mmHg 63%
    08:00 +7°C° 0 mm 8 mps 743 mmHg 60%
    09:00 +9°C° 0 mm 8 mps 743 mmHg 57%
    10:00 +11°C° 0 mm 8 mps 743 mmHg 54%
    11:00 +12°C° 0 mm 8 mps 743 mmHg 51%
    12:00 +13°C° 0 mm 9 mps 743 mmHg 50%
    13:00 +15°C° 0 mm 9 mps 743 mmHg 48%
    14:00 +16°C° 0 mm 9 mps 743 mmHg 47%
    15:00 +15°C° 0 mm 8 mps 742 mmHg 49%
    16:00 +15°C° 0 mm 8 mps 742 mmHg 52%
    17:00 +13°C° 0 mm 8 mps 742 mmHg 54%
    18:00 +12°C° 0 mm 7 mps 742 mmHg 57%
    19:00 +11°C° 0 mm 7 mps 742 mmHg 59%
    20:00 +10°C° 0 mm 7 mps 742 mmHg 61%
    21:00 +10°C° 0 mm 6 mps 742 mmHg 63%
    22:00 +10°C° 0 mm 6 mps 742 mmHg 64%
    23:00 +9°C° 0 mm 5 mps 743 mmHg 65%

    24 April, Wednesday

    Time Temperature Precipitation Wind Pressure Humidity
    00:00 +9°C° 0 mm 5 mps 743 mmHg 67%
    01:00 +8°C° 0 mm 5 mps 743 mmHg 69%
    02:00 +8°C° 0 mm 5 mps 743 mmHg 71%
    03:00 +8°C° 0 mm 4 mps 743 mmHg 71%
    04:00 +7°C° 0 mm 4 mps 743 mmHg 72%
    05:00 +7°C° 0 mm 4 mps 743 mmHg 72%
    06:00 +8°C° 0 mm 4 mps 743 mmHg 73%
    07:00 +8°C° 0 mm 5 mps 743 mmHg 74%
    08:00 +9°C° 0 mm 5 mps 744 mmHg 75%
    09:00 +10°C° 0 mm 5 mps 744 mmHg 71%
    10:00 +13°C° 0 mm 5 mps 744 mmHg 68%
    11:00 +15°C° 0 mm 6 mps 744 mmHg 65%
    12:00 +16°C° 0 mm 6 mps 744 mmHg 63%
    13:00 +17°C° 0 mm 6 mps 744 mmHg 62%
    14:00 +19°C° 0 mm 5 mps 744 mmHg 60%
    15:00 +19°C° 0.1 mm 5 mps 744 mmHg 61%
    16:00 +19°C° 0.1 mm 5 mps 743 mmHg 62%
    17:00 +19°C° 0.1 mm 5 mps 743 mmHg 63%
    18:00 +16°C° 0 mm 5 mps 743 mmHg 67%
    19:00 +15°C° 0 mm 4 mps 743 mmHg 71%
    20:00 +13°C° 0 mm 4 mps 743 mmHg 75%
    21:00 +12°C° 0 mm 4 mps 743 mmHg 77%
    22:00 +12°C° 0 mm 4 mps 744 mmHg 79%
    23:00 +11°C° 0 mm 3 mps 744 mmHg 81%
    Show more